User: anonymous   Login
Location: Poughquag
(41.6090°N, 73.6820°W)
Time: 07:36:56
(UTC-04:00)
Language:

Transit 4A - Orbit

View from above orbital plane
View from above orbital plane
View from above satellite
View from above satellite

Ground track
Ground track

The orbit data is extracted from the following two-line orbital elements,

1   116U 61015A   20149.99874796 -.00000047  00000-0  22866-4 0  9996
2   116  66.8103 255.7756 0073458  17.3755 342.9813 13.91770901989606
Epoch (UTC): 28 May 2020 23:58:11
Eccentricity: 0.0073458
inclination: 66.8103°
perigee height: 869 km
apogee height: 976 km
right ascension of ascending node: 255.7756°
argument of perigee: 17.3755°
revolutions per day: 13.91770901
mean anomaly at epoch: 342.9813°
orbit number at epoch: 98960

The dashed part of the orbit path shows where the satellite is in the earth's shadow,  

DLR